AirNav   Everest Fuels
 
 679 users online  

71ME Twin Eagles Airport
Naples, Maine, USA

GOING TO NAPLES?


FAA INFORMATION EFFECTIVE 10 SEPTEMBER 2020

Location

FAA Identifier: 71ME
Lat/Long: 43-58-01.0000N 070-36-04.0000W
43-58.016667N 070-36.066667W
43.9669444,-70.6011111
(estimated)
Elevation: 280 ft. / 85 m (estimated)
From city: 1 mile SE of NAPLES, ME
Time zone: UTC -4 (UTC -5 during Standard Time)
Zip code: 04055

Airport Operations

Airport use: Private use. Permission required prior to landing
Activation date: 11/2005
Control tower: no
ARTCC: BOSTON CENTER
FSS: BANGOR FLIGHT SERVICE STATION
Attendance: UNATNDD
Wind indicator: yes
Segmented circle: no

Airport Communications

WX AWOS-3PT at LEW (15 nm E): 118.025 (207-783-2806)
WX ASOS at IZG (15 nm W): 135.775 (207-935-2882)

Nearby radio navigation aids

VOR radial/distance  VOR name  Freq  Var
ENEr018/32.5KENNEBUNK VOR/DME117.1017W

 
NDB name  Hdg/Dist  Freq  Var  ID
LEWIE288/11.424017WLE .-.. .

Airport Services

Runway Information

Runway 14/32

Dimensions: 1100 x 50 ft. / 335 x 15 m
Surface: turf
RUNWAY 14  RUNWAY 32
Traffic pattern: leftleft
Obstructions: 50 ft. trees, 50 ft. from runwaynone

Airport Ownership and Management from official FAA records

Ownership: Privately-owned
Owner: JAMES ALLEN
ALLEN LAND CO., LLC, P.O. BOX 1499
NAPLES, ME 04055-1499
Phone (207) 693-6254
CELL: 207-939-9722
Manager: JAMES ALLEN
P.O. BOX 1499
NAPLES, ME 04055-1499
Phone (207) 693-6254
CELL: 207-939-9722

Additional Remarks

OWNER DESIRES ARPT NOT BE CHARTED.
PRIOR PERMISSION REQUIRED (PPR).
FOR CD CTC PORTLAND APCH AT 207-874-7320, WHEN APCH CLSD CTC BOSTON ARTCC AT 603-879-6859.

Instrument Procedures

There are no published instrument procedures at 71ME.

Some nearby airports with instrument procedures:

81B - Oxford County Regional Airport (13 nm NE)
KLEW - Auburn/Lewiston Municipal Airport (15 nm E)
KIZG - Eastern Slopes Regional Airport (15 nm W)
KPWM - Portland International Jetport (23 nm SE)
0B1 - Bethel Regional Airport (29 nm N)
 
Loc | Ops | Rwys | IFR | FBO | Links
Com | Nav | Svcs | Stats | Notes

Auburn-Lewiston Municipal Airport
 
Area around 71ME (Twin Eagles Airport)
 
Road maps at: MapQuest Bing Google
 
Aerial photo
No photo
 
Sectional chart

 
Airport distance calculator
Flying to Twin Eagles Airport? Find the distance to fly.

From to 71ME

Sunrise and sunset
Times for 28-Sep-2020
 Local
(UTC-4)
 Zulu
(UTC)
Morning civil twilight06:1010:10
Sunrise06:3910:39
Sunset18:2722:27
Evening civil twilight18:5622:56

Current date and time
Zulu (UTC)  28-Sep-2020 11:41:24
Local (UTC-4)  28-Sep-2020 07:41:24
 
METAR
KLEW 
15nm E 
281102Z AUTO 14005KT 3/4SM BR OVC002 18/18 A2998 RMK AO2
KIZG 
15nm W 
281054Z AUTO 12005KT 5SM BR OVC008 19/19 A2996 RMK AO2 CIG 006V011 SLP144 T01940189
KPWM 
23nm SE 
281051Z 17004KT 1SM BR OVC002 18/18 A2997 RMK AO2 SLP149 T01830178
KCWN 
25nm W 
281058Z AUTO 34010KT 10SM FEW055 SCT090 03/M05 A3037 RMK AO2 SLP187 T00341048 PWINO $
TAF
KPWM 
23nm SE 
280551Z 2806/2906 18004KT 6SM BR OVC003 FM280800 15005KT 2SM BR OVC003 FM281400 16006KT P6SM BKN015 FM281700 15008KT P6SM BKN025 FM290000 16005KT 1 1/2SM BR OVC005 AMD NOT SKED 2806/2809
NOTAMs
Click for the latest NOTAMs
NOTAMs are issued by the DoD/FAA and will open in a separate window not controlled by AirNav.

 

 
 

Would you like to see your business listed on this page?

 If your business provides an interesting product or service to pilots, flight crews, aircraft, or users of the Twin Eagles Airport, you should consider listing it here.  To start the listing process, click on the button below
 
Add a business
 

Other Pages about Twin Eagles Airport

Update a link
 
Copyright © AirNav, LLC. All rights reserved. Privacy Policy  Contact